Gadsden, AL

9:32 PM CDT on June 16, 2019 (GMT -0500)
Gadsden Municipal

Weather History for KGAD - May, 2019

Change the Weather History Date:

Sunday, May 19, 2019

  Actual Average Record
Temperature  
Mean Temperature 72 °F -  
Max Temperature 86 °F 78 °F 95 °F (1951)
Min Temperature 59 °F 55 °F 41 °F (2007)
Cooling Degree Days 8    
Growing Degree Days 22 (Base 50)    
Moisture  
Dew Point 64 °F    
Average Humidity 71    
Maximum Humidity 100    
Minimum Humidity 40    
Precipitation  
Precipitation 0.00 in - - ()
Sea Level Pressure  
Sea Level Pressure 30.00 in    
Wind  
Wind Speed 3 mph ()    
Max Wind Speed 13 mph    
Max Gust Speed 20 mph    
Visibility 8.7 miles    
Events Fog    
Averages and records for this station are not official NWS values.
T = Trace of Precipitation, MM = Missing Value Source: Averaged Metar Reports

Daily Weather History Graph

Daily Weather History Graph

Search for Another Location

Airport or City:

Astronomy

May. 19, 2019 Rise Set
Actual Time 5:40 AM CDT 7:41 PM CDT
Civil Twilight 5:12 AM CDT 8:09 PM CDT
Nautical Twilight 4:38 AM CDT 8:43 PM CDT
Astronomical Twilight 4:02 AM CDT 9:20 PM CDT
Moon 8:41 PM CDT (5/19) 6:23 AM CDT (5/19)
Length of Visible Light 14h 57m
Length of Day
14h 01m
Full, 99% of the Moon is Illuminated
May 19
Full
May 26
Last Quarter
Jun 3
New
Jun 10
First Quarter
Jun 17
Full

Hourly Weather History & Observations

Time (CDT) Temp. Heat Index Dew Point Humidity Pressure Visibility Wind Dir Wind Speed Gust Speed Precip Events Conditions
12:56 AM 64.0 °F - 64.0 °F 100% 29.99 in 10.0 mi Calm Calm - N/A   Clear
1:56 AM 62.1 °F - - N/A% 29.99 in 10.0 mi Calm Calm - N/A   Clear
2:56 AM 62.1 °F - - N/A% 29.98 in 10.0 mi Calm Calm - N/A   Clear
3:56 AM 61.0 °F - - N/A% 29.99 in 10.0 mi Calm Calm - N/A   Clear
4:56 AM 60.1 °F - 60.1 °F 100% 29.99 in 10.0 mi Calm Calm - N/A   Clear
5:39 AM 59.0 °F - - N/A% 30.00 in 0.8 mi Calm Calm - N/A   Clear
5:46 AM 59.0 °F - 59.0 °F 100% 30.00 in 0.5 mi Calm Calm - N/A Fog Fog
5:49 AM 60.8 °F - 59.0 °F 94% 30.00 in 1.2 mi Calm Calm - N/A   Clear
5:56 AM 59.0 °F - 59.0 °F 100% 30.00 in 9.0 mi West 3.5 mph - N/A   Clear
6:56 AM 63.0 °F - - N/A% 30.01 in 10.0 mi Calm Calm - N/A   Clear
7:56 AM 70.0 °F - 68.0 °F 93% 30.01 in 10.0 mi Calm Calm - N/A   Clear
8:56 AM 75.0 °F - 66.0 °F 73% 30.03 in 10.0 mi Variable 4.6 mph - N/A   Clear
9:56 AM 79.0 °F - 66.0 °F 64% 30.04 in 10.0 mi South 6.9 mph - N/A   Clear
10:56 AM 81.0 °F 81.7 °F 61.0 °F 50% 30.01 in 10.0 mi South 12.7 mph 19.6 mph N/A   Clear
11:56 AM 82.9 °F 82.8 °F 59.0 °F 44% 30.01 in 10.0 mi South 9.2 mph 18.4 mph N/A   Clear
12:56 PM 84.9 °F 84.2 °F 57.9 °F 40% 30.00 in 10.0 mi South 11.5 mph 18.4 mph N/A   Clear
1:56 PM 86.0 °F 87.3 °F 64.0 °F 48% 30.00 in 10.0 mi South 8.1 mph - N/A   Partly Cloudy
2:05 PM 86.0 °F 87.3 °F 64.4 °F 48% 29.99 in 2.5 mi SSW 11.5 mph - N/A   Haze
2:14 PM 86.0 °F 86.6 °F 62.6 °F 45% 29.99 in 8.0 mi South 8.1 mph 16.1 mph N/A   Partly Cloudy
2:56 PM 86.0 °F 86.3 °F 62.1 °F 44% 29.99 in 10.0 mi SSW 9.2 mph 18.4 mph N/A   Partly Cloudy
3:56 PM 86.0 °F 86.1 °F 61.0 °F 43% 29.97 in 10.0 mi South 11.5 mph 18.4 mph N/A   Clear
4:56 PM 84.0 °F 84.5 °F 62.1 °F 47% 29.98 in 10.0 mi SSW 8.1 mph - N/A   Clear
5:56 PM 81.0 °F 82.7 °F 64.9 °F 58% 29.97 in 10.0 mi SW 4.6 mph - N/A   Clear
6:56 PM 78.1 °F - 66.0 °F 66% 29.97 in 10.0 mi SW 3.5 mph - N/A   Scattered Clouds
7:56 PM 75.0 °F - 66.9 °F 76% 29.97 in 10.0 mi SSW 3.5 mph - N/A   Partly Cloudy
8:56 PM 71.1 °F - 66.9 °F 87% 29.99 in 10.0 mi West 5.8 mph - N/A   Clear
9:56 PM 69.1 °F - 68.0 °F 96% 30.00 in 10.0 mi Calm Calm - N/A   Mostly Cloudy
10:56 PM 69.1 °F - 69.1 °F 100% 30.00 in 10.0 mi Calm Calm - N/A   Mostly Cloudy
11:56 PM 70.0 °F - 68.0 °F 93% 30.01 in 10.0 mi West 3.5 mph - N/A   Mostly Cloudy